Probability
1 0 0 0 0 0 0 0 0 1 4 8 12 15 20 22 22 25 31 39 42 42 38 35 36 36 33 31 35 41 41 37 32 29 26 21 18 21 24 25 24 23 22 23
1 0 0 0 1 1 2 1 1 2 6 11 15 20 24 25 27 30 34 38 41 41 38 38 41 40 38 37 38 42 42 39 34 31 28 25 23 26 30 31 28 25 24 24
1 0 0 0 2 4 5 4 4 5 9 14 18 24 28 31 33 35 38 41 42 42 40 42 45 45 44 44 44 45 46 43 37 34 32 29 27 31 35 36 34 30 27 25
0 0 0 1 2 4 6 7 7 8 12 16 21 27 31 33 35 37 42 46 45 43 42 43 46 47 47 48 49 49 49 45 39 35 33 30 28 30 32 34 34 32 29 27
0 0 0 1 2 3 5 7 9 10 13 19 23 26 29 32 35 39 44 47 46 45 42 41 43 46 47 48 49 49 48 44 40 36 33 30 28 27 27 30 30 29 28 28
0 0 0 2 3 4 5 7 9 10 13 18 21 23 27 31 35 40 44 45 46 46 43 41 41 44 45 44 44 43 41 40 38 37 33 29 26 24 25 27 28 26 25 25
0 0 1 2 3 5 7 9 9 11 14 16 19 25 30 33 36 39 42 44 44 44 43 42 43 43 41 39 38 35 32 31 33 33 30 26 24 23 23 24 24 23 22 21
1 1 3 6 8 9 11 11 11 12 14 16 21 28 33 35 35 35 38 40 40 40 40 42 43 42 38 34 31 28 25 25 26 27 25 22 21 21 22 22 20 20 20 19
4 5 7 10 14 15 16 15 15 15 15 18 23 28 31 34 33 33 35 35 34 34 36 38 38 37 33 28 25 22 21 21 22 22 21 19 18 19 20 19 18 18 17 17
8 9 12 14 16 18 19 20 20 20 19 22 24 27 30 32 32 34 35 35 32 31 32 32 31 29 25 21 18 18 18 19 19 18 18 17 17 16 16 16 17 16 16 16
12 15 17 17 15 16 18 20 22 21 21 23 24 25 28 31 32 33 34 33 30 28 27 26 25 23 20 17 15 16 17 18 17 16 16 16 14 12 11 11 11 11 11 12
17 19 19 17 15 15 15 17 20 21 20 21 22 24 27 30 31 30 28 26 24 24 22 19 18 19 18 17 15 15 16 17 16 16 16 14 11 7 6 6 5 4 4 5
18 18 18 16 15 15 15 16 20 21 20 20 20 23 27 30 29 26 22 20 19 19 18 16 16 17 17 16 15 14 14 14 15 15 14 11 8 5 4 3 2 2 1 1
14 15 17 16 15 14 13 15 19 20 18 18 19 22 25 27 27 24 21 19 18 17 17 17 17 16 16 16 15 14 12 12 13 13 11 8 7 6 4 3 3 4 3 2
12 14 16 16 13 11 10 12 15 16 15 15 18 20 22 24 24 21 19 18 16 16 17 18 17 14 12 13 13 13 12 10 10 9 8 7 6 6 4 4 4 6 7 5
13 13 13 13 11 9 8 9 12 13 13 14 16 19 20 20 18 16 15 15 16 16 16 16 13 8 7 8 9 10 10 8 8 7 7 6 6 5 5 4 5 6 8 8
12 11 11 11 9 8 7 7 9 10 11 11 13 16 17 16 14 13 12 13 14 15 13 12 9 5 4 5 7 8 7 7 7 7 7 6 5 4 4 4 4 6 7 8
9 9 9 9 8 7 6 7 7 9 9 8 9 12 15 15 13 11 10 10 11 12 11 8 5 3 3 4 6 7 7 7 7 7 7 6 4 3 3 4 4 5 6 5
6 7 8 8 8 7 6 6 7 7 7 7 9 11 13 13 11 8 8 9 10 11 10 6 3 3 2 2 3 5 6 7 7 7 6 4 3 3 3 3 3 4 3 2
4 4 4 5 6 6 5 5 5 6 6 8 9 9 9 8 7 6 7 8 9 10 8 5 3 4 3 2 2 4 5 6 6 5 4 3 3 3 3 3 3 2 1 0
4 3 3 4 5 5 6 5 5 5 5 6 7 6 4 4 4 5 7 8 8 7 5 3 3 3 3 2 2 3 4 4 4 4 3 3 3 3 3 2 2 1 0 0
6 5 4 5 6 7 7 7 6 4 3 3 4 4 4 4 5 5 6 7 6 4 3 3 2 1 1 1 0 1 3 3 3 3 3 3 3 2 1 1 1 0 0 0
7 6 5 6 7 8 8 7 6 3 1 2 3 4 6 7 6 6 6 5 4 3 3 2 1 0 0 0 0 1 2 3 3 3 3 3 2 1 0 0 0 0 0 0
7 6 6 6 7 8 8 7 5 3 1 1 2 4 5 7 6 4 4 4 2 2 2 1 0 0 0 0 0 1 3 3 3 3 3 2 1 0 0 0 0 0 0 0
6 6 6 7 7 7 7 6 5 4 3 3 3 4 5 5 5 3 3 3 2 1 2 1 0 0 0 0 1 2 3 3 3 3 3 1 0 0 0 0 0 0 0 0
4 5 7 7 6 5 5 5 5 4 4 5 7 7 6 5 4 3 3 3 2 2 2 2 1 1 1 1 2 3 4 4 3 3 3 1 0 0 0 0 0 0 0 0
2 4 7 7 5 4 4 4 4 4 4 6 9 10 8 6 4 3 3 3 3 3 3 3 2 2 2 2 1 2 4 5 4 3 3 2 1 0 0 0 0 0 0 0
Wind_Speed
6 4 8 11 12 14 15 13 11 9 8 5 4 4 5 5 5 6 7 7 7 7 7 7 7 7 6 6 6 6 5 5 4 4 4 3 3 2 2 2 2 1 1 1
7 7 8 9 11 13 13 12 11 9 6 2 3 4 5 5 5 6 6 6 7 7 7 7 7 6 6 6 5 6 5 5 4 4 4 3 3 3 3 3 2 2 2 1
9 9 10 11 10 12 11 10 10 9 5 5 5 4 4 5 5 5 6 6 6 6 6 6 6 6 6 6 6 6 6 5 4 4 4 4 3 3 3 3 3 2 2 2
7 9 13 5 4 7 8 7 6 4 4 5 4 3 3 4 5 5 5 5 6 6 6 6 6 6 6 7 6 5 5 5 4 4 4 4 4 3 3 3 3 3 3 3
8 11 9 6 6 7 8 7 6 6 5 5 4 5 4 3 4 5 5 5 6 6 6 6 6 6 7 7 6 6 5 4 4 4 4 4 4 4 4 3 3 3 3 3
9 12 12 6 6 5 7 8 6 6 6 6 7 7 4 5 5 6 6 5 6 6 6 6 6 6 7 7 7 6 5 4 4 4 4 4 5 4 4 4 4 3 3 3
12 11 6 3 4 7 10 5 5 5 6 6 5 1 5 7 7 7 7 7 7 6 5 5 5 6 7 7 6 6 5 5 4 4 4 5 4 4 4 4 4 3 3 3
11 12 7 3 6 6 0 3 3 4 5 4 3 5 7 7 8 8 8 7 7 6 5 5 5 6 7 6 6 6 6 6 5 4 3 4 5 4 4 4 4 4 3 2
5 2 3 2 1 1 1 1 1 2 3 4 5 6 7 7 8 8 7 7 6 7 6 5 5 5 7 6 6 6 6 6 5 5 4 4 4 4 3 3 2 2 2 2
4 3 2 1 1 1 1 2 1 2 3 4 5 6 7 7 7 7 7 6 6 7 7 6 5 5 6 6 6 7 7 6 5 5 5 4 3 2 2 2 2 2 2 2
6 4 3 3 1 0 0 1 1 2 3 3 5 6 7 7 7 6 6 6 6 6 6 6 6 6 6 6 7 7 7 6 5 5 5 5 4 4 3 4 4 2 1 2
5 4 3 2 1 0 1 1 1 2 2 3 4 6 7 6 6 6 6 6 6 6 6 6 6 6 5 6 6 7 6 6 4 4 4 4 5 5 10 7 9 8 7 4
3 3 2 2 2 2 1 0 1 1 2 3 4 5 6 6 6 6 7 7 6 6 6 6 6 6 5 5 6 6 6 5 4 4 4 4 4 4 4 5 7 8 7 6
3 3 4 4 2 1 1 0 1 2 2 3 4 5 6 6 6 7 7 6 6 6 6 6 6 6 5 5 6 5 5 5 4 4 4 4 4 4 3 4 4 4 5 6
5 5 5 4 3 3 2 2 3 3 3 4 5 5 6 6 6 6 6 6 6 6 6 6 6 5 5 5 6 5 5 4 4 4 3 3 3 3 3 3 4 4 4 5
5 4 5 6 5 5 5 5 4 3 3 4 4 5 5 5 5 6 6 7 7 7 6 6 6 6 5 6 6 5 4 5 4 4 4 4 3 3 3 3 3 3 3 3
5 5 6 5 5 6 5 4 4 3 3 3 4 4 6 7 6 6 6 6 6 6 6 6 6 6 6 6 6 4 5 5 5 4 3 3 3 3 3 3 3 3 3 3
5 5 5 5 5 5 4 4 4 4 4 4 4 5 6 7 7 7 6 6 6 6 5 6 6 6 6 5 5 4 4 4 4 4 4 4 4 3 3 3 3 3 4 4
5 5 5 5 5 4 4 4 4 4 4 5 5 4 5 6 6 6 7 7 7 7 6 6 6 6 6 6 5 4 4 4 4 4 4 5 4 4 3 3 3 3 3 3
5 5 5 5 5 4 4 3 3 3 4 4 4 4 5 5 6 7 7 6 4 4 6 6 7 6 6 6 4 4 4 4 4 4 4 4 4 4 3 3 3 3 3 3
4 5 5 5 5 4 4 4 4 4 4 4 4 4 5 6 6 6 6 5 5 6 7 6 5 5 5 5 5 4 4 4 4 4 4 4 4 4 3 3 3 3 3 3
3 4 5 5 5 4 3 3 4 4 4 4 5 5 5 6 6 6 5 4 6 6 5 5 5 5 5 5 5 4 4 4 4 4 4 4 4 4 4 3 3 3 3 3
3 3 4 4 4 4 4 4 4 5 5 5 5 6 5 5 4 5 5 5 6 6 5 4 6 7 6 5 5 5 5 5 4 4 4 4 4 4 4 4 3 3 3 3
3 3 4 4 4 4 4 4 4 4 4 5 5 5 5 4 4 3 4 6 6 6 4 6 8 7 6 4 4 4 5 4 4 4 4 4 4 4 4 3 3 3 3 3
2 3 3 3 4 3 4 4 5 5 5 4 5 5 4 3 4 4 5 7 7 6 6 7 8 7 6 4 4 4 4 4 4 4 4 4 4 4 4 3 3 3 3 3
1 2 2 2 2 2 3 3 3 4 4 4 4 4 4 4 5 5 5 7 8 6 5 5 6 6 5 4 5 5 5 5 5 5 5 5 5 4 3 3 4 3 3 2
2 2 2 2 2 3 3 3 3 4 4 4 4 4 5 5 5 5 6 6 6 5 5 5 5 5 4 4 4 5 5 5 5 4 5 4 4 4 4 5 3 3 3 2
Wind_Direction
241 208 206 209 208 209 222 235 240 226 219 189 179 172 160 154 144 140 142 145 148 148 144 147 148 148 148 152 154 155 158 162 164 166 163 165 163 162 165 168 173 166 165 137
210 207 207 213 213 213 219 227 231 229 217 167 163 153 149 152 153 149 146 143 143 142 142 145 146 145 145 145 147 149 150 151 154 158 154 152 151 156 158 154 147 135 127 124
212 204 212 216 214 214 213 219 227 226 212 177 173 169 166 160 162 159 150 142 136 135 139 142 142 147 146 144 146 149 150 148 153 157 150 143 148 149 152 151 141 127 117 109
215 202 222 208 201 214 207 213 222 211 188 184 183 169 147 153 158 157 146 137 132 131 133 132 129 136 141 139 142 144 144 144 156 158 155 152 151 145 136 129 126 122 117 114
223 219 217 197 200 206 207 209 208 201 184 163 153 150 136 138 147 146 138 136 130 125 126 125 126 132 135 135 136 136 135 141 148 154 150 146 141 133 130 127 123 122 119 109
222 228 225 195 173 214 220 212 197 197 184 175 181 197 161 129 128 127 125 125 120 116 117 121 124 129 131 127 126 127 126 129 132 139 142 136 130 128 127 129 126 126 110 97
226 231 226 151 166 194 219 191 165 193 190 190 201 235 112 128 128 126 122 118 116 116 116 117 122 130 130 125 125 125 123 124 121 120 127 125 124 124 130 130 121 115 109 107
224 231 215 147 190 215 178 84 158 177 183 184 160 131 134 138 136 132 125 121 120 118 112 114 122 129 128 125 126 125 124 122 115 113 118 119 117 121 128 135 134 127 122 115
244 246 73 135 160 78 127 168 164 179 179 178 165 154 145 142 140 136 130 127 127 123 119 119 123 129 126 126 133 132 127 122 118 114 107 108 117 125 137 145 144 136 134 123
229 196 187 203 226 251 249 235 226 196 181 181 169 155 147 142 140 137 134 133 134 132 129 125 125 125 123 131 137 133 131 128 127 126 119 105 103 111 108 103 111 114 121 117
223 206 195 195 209 277 311 236 194 178 172 175 161 159 153 150 147 142 137 139 140 138 135 134 131 126 126 130 134 133 132 132 132 126 116 104 85 53 59 55 38 25 70 98
225 197 217 174 206 234 188 195 179 160 157 159 163 158 155 153 149 146 145 145 144 139 137 137 137 133 131 135 140 141 141 142 140 136 129 128 118 94 56 56 59 51 37 35
258 244 256 231 236 244 235 239 226 184 157 144 145 153 153 149 149 147 147 151 146 141 139 141 138 133 132 142 147 147 145 143 141 140 140 144 142 137 124 94 77 65 58 61
234 227 228 221 215 192 178 120 133 133 141 149 147 149 150 150 151 151 153 151 147 143 142 142 139 135 137 142 143 143 143 136 144 142 145 149 149 150 147 144 135 114 91 92
228 230 225 204 194 192 190 182 168 156 148 147 148 151 153 154 154 153 151 150 148 146 144 142 141 139 142 145 144 145 148 144 141 143 148 146 145 149 144 138 132 129 126 119
225 213 201 196 196 198 201 198 187 174 161 152 148 149 147 145 144 145 149 154 155 153 148 146 144 143 146 145 144 141 130 121 143 151 147 145 151 151 146 144 140 134 128 127
214 203 195 196 202 209 209 203 194 184 173 160 153 152 149 146 146 146 149 154 153 149 149 148 144 144 149 150 150 144 140 139 151 157 148 142 140 139 142 144 135 123 110 86
227 223 217 213 213 209 207 203 195 184 177 168 162 163 163 162 161 154 152 150 146 147 147 143 141 145 148 149 148 143 147 151 153 146 141 139 139 143 146 142 137 133 127 128
218 214 210 209 208 203 201 197 189 172 168 167 164 166 172 168 161 158 155 156 158 160 155 144 140 153 148 140 142 149 156 156 152 147 143 144 157 151 151 149 141 139 136 133
209 204 201 203 201 196 192 186 176 167 169 168 164 168 169 165 164 162 161 165 166 150 143 147 160 157 149 146 156 158 162 161 156 152 153 159 157 151 151 145 139 137 134 131
190 191 194 196 193 187 184 180 175 172 173 176 173 176 171 164 165 167 168 160 145 142 147 154 169 162 156 150 176 168 166 164 160 159 160 159 156 155 151 147 143 139 137 137
174 176 183 184 178 174 174 174 174 176 180 184 180 173 164 161 164 165 163 150 143 143 160 166 164 140 144 161 173 166 163 167 165 160 159 157 154 155 151 147 144 142 140 137
159 162 165 169 170 168 169 173 180 185 187 183 177 172 168 160 161 162 155 144 148 153 169 153 128 134 160 184 171 167 166 168 165 160 159 158 155 153 152 154 152 151 148 151
151 149 153 159 166 167 169 172 175 179 175 167 164 161 162 159 157 152 135 137 142 156 158 127 137 156 189 189 172 168 163 162 159 156 156 155 153 153 155 159 156 156 157 160
140 149 155 166 172 170 165 166 163 164 168 159 153 154 164 163 151 144 144 146 145 158 151 142 153 170 190 180 169 163 157 152 153 157 159 158 159 161 163 165 159 158 157 154
176 175 170 179 174 167 162 167 173 168 162 155 150 149 146 138 135 138 141 147 151 157 154 153 161 177 183 168 162 158 153 152 159 163 156 157 161 163 160 158 157 162 155 149
189 183 175 172 177 180 175 175 176 172 168 162 154 148 145 142 142 144 145 148 151 157 156 158 162 169 168 164 157 154 152 150 151 152 154 157 158 157 156 160 159 154 154 152